Find Kosmos-1085

NORAD ID: 11300 Int'l Des: 1979-024 Owner: GUKOSR Country: SU operational
LEOCIRCULAR

Live Position

Loading 3D Globe...

About Kosmos-1085

Description loading...

Upcoming Passes

Passes for default location (London). Set your location on the main map for personalized predictions.

Altitude History

Loading altitude history...

Two-Line Element Set

1 11300U 79024E 26106.66036851 -.00000030 00000-0 -10049-3 0 9999
2 11300 74.0317 259.3531 0024714 195.6157 176.5964 12.45292823140639
Epoch: Apr 16, 2026 • Age: 27 hours

Current Status

Altitude 1506.9 km
Velocity 7.11 km/s
Sub-Earth Point 47.21°N, 144.24°E
Launch Date Mar 15, 1979
Age 47 years
Type other

Technical Details

Classification Payload
Mass 60.00 kg
Dry Mass 60.00 kg
Total Mass 60.00 kg
Length 0.80 m
Diameter 0.80 m
Span 0.80 m
Shape Poly
Manufacturer NPOPM
Bus Type Strela-1 11F625
Phase Status In Orbit
Owner/State GUKOSR/SU

Most Searched